Regional Weather Roundup
Issued by NWS

Home | Current Version | Previous Version | Text Only | Print | Product List | Glossary Off
Versions: 1 2 3 4 5 6 7 8 9 10 11 12 13 14 15 16 17 18 19 20 21 22 23 24 25 26 27 28 29 30 31 32 33 34 35 36 37 38 39 40 41 42 43 44 45 46 47 48 49 50

000
ASUS43 KOAX 260910
RWRNE

WEATHER ROUNDUP FOR NEBRASKA
NATIONAL WEATHER SERVICE OMAHA NE
300 AM CST WED NOV 26 2014

NOTES: SATELLITE DATA IS BEING USED TO AUGMENT CLOUD COVER ABOVE
       12000 FEET.
       "FAIR" INDICATES FEW OR NO CLOUDS BELOW 12,000 FEET WITH NO
       SIGNIFICANT WEATHER AND/OR OBSTRUCTIONS TO VISIBILITY.

  * THESE STATIONS DO NOT REPORT WEATHER SUCH AS RAIN...SNOW OR FOG.

NEZ001>004-019>022-054>056-261000-
NEBRASKA PANHANDLE

CITY           SKY/WX    TMP DP  RH WIND       PRES   REMARKS
SCOTTSBLUFF    CLOUDY    31  25  78 NW15      30.12R WCI  20
ALLIANCE       CLOUDY    31  21  66 NW25      30.06R WCI  17
CHADRON        CLOUDY    45  23  42 NW13      30.13R
KIMBALL        CLOUDY    28  24  84 NW14G20   30.08R WCI  17
SIDNEY         CLOUDY    29  24  82 N20G28    30.08R WCI  16
$$

NEZ057>060-069>072-079>082-261000-
SOUTHWEST NEBRASKA

CITY           SKY/WX    TMP DP  RH WIND       PRES   REMARKS
NORTH PLATTE   CLOUDY    35  27  72 NW17      30.03R WCI  25
IMPERIAL       CLOUDY    35  23  61 NW16      30.07R WCI  25
LEXINGTON      CLOUDY    36  31  84 NW13      29.99R WCI  27
MCCOOK         CLOUDY    37  30  75 NW13      30.05R WCI  29
OGALLALA       CLOUDY    37  25  63 N21G32    30.06R WCI  26
$$

NEZ005>010-023>029-035>040-094-261000-
NORTH CENTRAL NEBRASKA

CITY           SKY/WX    TMP DP  RH WIND       PRES   REMARKS
VALENTINE      CLOUDY    29  21  72 NW25G44   30.02R WCI  14
AINSWORTH      CLOUDY    32  23  71 NW30G38   29.99R WCI  17
BROKEN BOW     CLOUDY    37  24  59 NW23G32   29.97R WCI  26
O`NEILL        CLOUDY    36  30  79 NW28G35   29.91R WCI  23
ORD            CLOUDY    36  26  67 NW21G29   29.93R WCI  25
THEDFORD       CLOUDY    35  25  67 NW25G39   30.00R WCI  22
$$

NEZ041-046>049-061>064-073>077-083>087-261000-
SOUTH CENTRAL NEBRASKA

CITY           SKY/WX    TMP DP  RH WIND       PRES   REMARKS
GRAND ISLAND   PTCLDY    34  26  72 NW13      29.94R WCI  25
AURORA         PTCLDY    35  28  75 NW14      29.92R WCI  25
HASTINGS       PTCLDY    35  25  66 NW16      29.94R WCI  25
HEBRON         PTCLDY    38  28  66 NW14      29.95R WCI  30
HOLDREGE       CLOUDY    36  29  75 NW13G18   29.98R WCI  28
KEARNEY *      MOCLDY    37  21  52 W18G28    29.97R WCI  27
YORK           CLEAR     36  28  75 NW17      29.90R WCI  25
$$

NEZ011>018-030>034-042>045-261000-
NORTHEAST NEBRASKA

CITY           SKY/WX    TMP DP  RH WIND       PRES   REMARKS
NORFOLK        CLOUDY    38  32  79 NW20      29.85R WCI  28
ALBION         CLOUDY    38  28  66 NW16G25   29.89R WCI  29
BLAIR          CLOUDY    38  34  85 NW8G16    29.82S WCI  32
COLUMBUS *     CLOUDY    36  27  69 W14       29.89R WCI  27
FREMONT        CLOUDY    37  35  92 W12       29.85R WCI  29
TEKAMAH        CLOUDY    37  33  85 NW13      29.83S WCI  29
WAYNE          CLOUDY    37  34  88 NW14      29.85R WCI  28
$$

NEZ050>053-065>068-078-088>093-261000-
SOUTHEAST NEBRASKA

CITY           SKY/WX    TMP DP  RH WIND       PRES   REMARKS
LINCOLN        PTCLDY    37  30  75 W15       29.90R WCI  28
OMAHA EPPLEY   CLOUDY    38  35  89 NW10      29.85R WCI  31
BEATRICE       MOCLDY    36  32  85 W10       29.91R WCI  28
FALLS CITY     CLOUDY    39  31  72 SW6       29.88F WCI  35
NEBRASKA CITY  CLOUDY    38  33  80 W14       29.86R WCI  30
PLATTSMOUTH    CLOUDY    38  34  85 W14       29.85R WCI  29
$$

NEZ044-045-051>053-067-261000-
OMAHA AREA

CITY           SKY/WX    TMP DP  RH WIND       PRES   REMARKS
OMAHA EPPLEY   CLOUDY    38  35  89 NW10      29.85R WCI  31
BLAIR          CLOUDY    38  34  85 NW8G16    29.82S WCI  32
FREMONT        CLOUDY    37  35  92 W12       29.85R WCI  29
MILLARD        CLOUDY    38  35  87 NW8       29.84R WCI  32
OFFUTT AFB     CLOUDY    37  36  93 W9        29.84R WCI  31
PLATTSMOUTH    CLOUDY    38  34  85 W14       29.85R WCI  29
WAHOO          PTSUNNY   37  32  80 NW15G21   29.85R WCI  28
$$



USA.gov is the U.S. government's official web portal to all federal, state and local government web resources and services.